Location: Ferchesar
(52.6477°N, 12.4298°E)
Time: 10:27:37
(UTC+01:00)

Vanguard 3 - Pass Details

Date: 12 December 2021
Orbit: 508 x 3260 km, 33.3° (Epoch: 25 January)

Event Time Altitude Azimuth Distance (km) Brightness Sun altitude
Exits shadow 02:15:42 35° 149° (SSE) 4,418 10.6 -51.3°
Drops below altitude 10° 02:29:44 10° 105° (ESE) 5,999 11.8 -49.5°
Sets 02:34:35 0° 98° (E) 6,804 12.3 -48.9°
